Location: Catacaguana
(10.4120°N, 66.7591°W)
Time: 04:54:20
(UTC+00:00)

CENTAUR R/B - Pass Details

Date: 27 May 2022
Orbit: 716 x 1471 km, 63.4° (Epoch: 08 May)

Event Time Altitude Azimuth Distance (km) Brightness Sun altitude
Rises 00:46:22 0° 338° (NNW) 4,491 6.7 -27.9°
Reaches altitude 10° 00:49:16 10° 339° (NNW) 3,558 6.0 -28.5°
Maximum altitude 00:58:18 82° 67° (ENE) 1,480 3.2 -30.4°
Enters shadow 00:59:57 64° 140° (SE) 1,589 3.2 -30.7°
